81P/Wild 2 (2022)

Japanese version
Home page
Updated on November 3, 2020

---------------------------------------------------------------------

* Profile

* Orbital Elements

Epoch 2022 Dec. 7.0 TT = JDT 2459920.5
T 2022 Dec. 15.63328 TT                                 MPCW
q   1.5984363            (2000.0)            P               Q
n   0.15352309     Peri.   41.63298     -0.99848100     -0.03876641
a   3.4542485      Node   136.09790     +0.02210588     -0.93276061
e   0.5372550      Incl.    3.23670     +0.05046798     -0.35840592
P   6.42
From 4951 observations 2002 Sept. 5-2017 June 2, mean residual 0".7.
     Nongravitational parameters A1 = +0.03, A2 = -0.0147.

* Finding Charts

* Magnitudes Graph

        m1 = 6.3 + 5 log d + 18.0 log r(t + 20)  [  ,95]  (             - 2023 Mar. 20)
        m1 = 8.2 + 5 log d + 12.5 log r          [95,  ]  (2023 Mar. 20 -             )

---------------------------------------------------------------------

The orbital elements are published on M.P.E.C. 2017-L52.
The charts are made with StellaNavigator Ver.10 (AstroArts).
The magnitudes graphs are made with Comet for Windows.

---------------------------------------------------------------------

Copyright(C) Seiichi Yoshida (comet@aerith.net). All rights reserved.